Weather History for KRSN - February, 2013

Change the Weather History Date:

Monday, February 18, 2013

  Actual Average Record
Temperature  
Mean Temperature 58 °F -  
Max Temperature 68 °F 59 °F 82 °F (1986)
Min Temperature 48 °F 37 °F 13 °F (1936)
Degree Days  
Heating Degree Days 7    
Growing Degree Days 8 (Base 50)    
Moisture  
Dew Point 50 °F    
Average Humidity 77    
Maximum Humidity 100    
Minimum Humidity 53    
Precipitation  
Precipitation 0.59 in - - ()
Sea Level Pressure  
Sea Level Pressure 30.01 in    
Wind  
Wind Speed 12 mph (South)    
Max Wind Speed 29 mph    
Max Gust Speed 37 mph    
Visibility 10 miles    
Events Rain , Thunderstorm    
Averages and records for this station are not official NWS values.
T = Trace of Precipitation, MM = Missing Value Source: NWS Daily Summary

Daily Weather History Graph

Daily Weather History Graph

Search for Another Location

Airport or City:

Trip Planner

Search our weather history database for the weather conditions in past years. The results will help you decide how hot, cold, wet, or windy it might be!

Date:

Astronomy

Feb. 18, 2013 Rise Set
Actual Time 6:49 AM CST 5:59 PM CST
Civil Twilight 6:24 AM CST 6:24 PM CST
Nautical Twilight 5:56 AM CST 6:52 PM CST
Astronomical Twilight 5:27 AM CST 7:21 PM CST
Moon 11:54 AM CST (2/18) 1:21 AM CST (2/18)
Length of Visible Light 11h 59m
Length of Day
11h 09m
First Quarter, 58% of the Moon is Illuminated
Feb 18
First Quarter
Feb 25
Full
Mar 4
Last Quarter
Mar 11
New
Mar 19
First Quarter

Hourly Weather History & Observations

Time (CST) Temp. Dew Point Humidity Pressure Visibility Wind Dir Wind Speed Gust Speed Precip Events Conditions
12:15 AM 51.8 °F 42.8 °F 71% 30.14 in 10.0 mi South 11.5 mph - N/A   Clear
12:35 AM 51.6 °F 42.8 °F 72% 30.14 in 10.0 mi South 10.4 mph - N/A   Clear
12:55 AM 51.3 °F 43.0 °F 73% 30.13 in 10.0 mi South 10.4 mph - N/A   Clear
1:15 AM 50.9 °F 43.0 °F 74% 30.13 in 10.0 mi South 11.5 mph - N/A   Clear
1:35 AM 50.7 °F 42.8 °F 74% 30.13 in 10.0 mi South 9.2 mph - N/A   Clear
1:55 AM 50.0 °F 42.8 °F 76% 30.12 in 10.0 mi South 10.4 mph - N/A   Clear
2:15 AM 49.5 °F 42.8 °F 78% 30.11 in 10.0 mi South 10.4 mph - N/A   Clear
2:35 AM 49.1 °F 42.4 °F 78% 30.11 in 10.0 mi South 10.4 mph 16.1 mph N/A   Clear
2:55 AM 49.1 °F 42.3 °F 77% 30.11 in 10.0 mi SSE 9.2 mph - N/A   Mostly Cloudy
3:15 AM 48.6 °F 41.9 °F 78% 30.10 in 10.0 mi SSE 9.2 mph - N/A   Overcast
3:35 AM 48.7 °F 41.9 °F 77% 30.09 in 10.0 mi SSE 10.4 mph - N/A   Overcast
3:55 AM 49.1 °F 41.9 °F 76% 30.09 in 10.0 mi SSE 10.4 mph - N/A   Overcast
4:15 AM 49.5 °F 42.1 °F 76% 30.09 in 10.0 mi SSE 12.7 mph - N/A   Mostly Cloudy
4:35 AM 50.0 °F 42.1 °F 74% 30.09 in 10.0 mi SSE 10.4 mph - N/A   Mostly Cloudy
4:55 AM 49.8 °F 42.1 °F 75% 30.09 in 10.0 mi SSE 11.5 mph - N/A   Mostly Cloudy
5:15 AM 50.2 °F 42.4 °F 75% 30.09 in 10.0 mi South 10.4 mph - N/A   Mostly Cloudy
5:35 AM 50.5 °F 42.3 °F 73% 30.09 in 10.0 mi South 10.4 mph - N/A   Overcast
5:55 AM 50.9 °F 42.4 °F 73% 30.08 in 10.0 mi SSE 10.4 mph 17.3 mph N/A   Overcast
6:15 AM 51.1 °F 42.4 °F 72% 30.08 in 10.0 mi SSE 9.2 mph - N/A   Overcast
6:35 AM 51.4 °F 42.8 °F 72% 30.08 in 10.0 mi SSE 9.2 mph - N/A   Overcast
6:55 AM 52.0 °F 43.2 °F 72% 30.08 in 10.0 mi SSE 11.5 mph 16.1 mph N/A   Overcast
7:15 AM 52.5 °F 43.5 °F 71% 30.08 in 10.0 mi SSE 9.2 mph - N/A   Overcast
7:35 AM 52.9 °F 43.9 °F 71% 30.07 in 10.0 mi SSE 11.5 mph - N/A   Overcast
7:55 AM 53.8 °F 44.4 °F 71% 30.08 in 10.0 mi SSE 9.2 mph - N/A   Overcast
8:15 AM 54.3 °F 44.8 °F 70% 30.08 in 7.0 mi SSE 12.7 mph 18.4 mph N/A   Overcast
8:35 AM 54.7 °F 45.0 °F 70% 30.08 in 10.0 mi South 12.7 mph 18.4 mph N/A   Overcast
8:55 AM 55.4 °F 45.5 °F 69% 30.08 in 10.0 mi South 16.1 mph 21.9 mph N/A   Overcast
9:15 AM 56.5 °F 46.2 °F 68% 30.07 in 10.0 mi South 17.3 mph 21.9 mph N/A   Overcast
9:35 AM 57.6 °F 46.4 °F 66% 30.05 in 10.0 mi South 18.4 mph 25.3 mph N/A   Overcast
9:55 AM 59.7 °F 46.6 °F 62% 30.05 in 10.0 mi South 20.7 mph 28.8 mph N/A   Mostly Cloudy
10:15 AM 60.1 °F 47.1 °F 62% 30.04 in 10.0 mi South 18.4 mph 29.9 mph N/A   Mostly Cloudy
10:35 AM 62.4 °F 47.5 °F 58% 30.04 in 10.0 mi South 18.4 mph 27.6 mph N/A   Scattered Clouds
10:55 AM 62.6 °F 47.7 °F 58% 30.03 in 10.0 mi South 19.6 mph 28.8 mph N/A   Mostly Cloudy
11:15 AM 64.2 °F 48.4 °F 56% 30.02 in 10.0 mi South 20.7 mph 27.6 mph N/A   Mostly Cloudy
11:35 AM 66.2 °F 48.4 °F 53% 30.00 in 10.0 mi South 21.9 mph 27.6 mph N/A   Mostly Cloudy
11:55 AM 66.2 °F 48.7 °F 53% 29.98 in 10.0 mi South 20.7 mph 29.9 mph N/A   Mostly Cloudy
12:15 PM 66.4 °F 49.1 °F 54% 29.97 in 10.0 mi South 25.3 mph 34.5 mph N/A   Overcast
12:35 PM 67.3 °F 49.8 °F 53% 29.96 in 10.0 mi South 20.7 mph 29.9 mph N/A   Overcast
12:55 PM 66.4 °F 50.2 °F 56% 29.95 in 10.0 mi South 28.8 mph 36.8 mph N/A   Overcast
1:15 PM 66.4 °F 50.9 °F 57% 29.93 in 10.0 mi South 19.6 mph 28.8 mph N/A   Overcast
1:35 PM 68.5 °F 51.4 °F 54% 29.91 in 10.0 mi South 23.0 mph 31.1 mph N/A   Overcast
1:55 PM 68.2 °F 51.8 °F 56% 29.90 in 10.0 mi South 19.6 mph 31.1 mph N/A   Overcast
2:15 PM 68.0 °F 52.2 °F 57% 29.90 in 10.0 mi SSW 16.1 mph 28.8 mph N/A   Overcast
2:35 PM 67.6 °F 52.7 °F 59% 29.89 in 10.0 mi South 18.4 mph 24.2 mph N/A   Overcast
2:55 PM 67.1 °F 53.2 °F 61% 29.88 in 10.0 mi South 20.7 mph 29.9 mph N/A   Overcast
3:15 PM 63.1 °F 56.8 °F 80% 29.88 in 10.0 mi SSW 11.5 mph 27.6 mph 0.01 in Rain , Thunderstorm Thunderstorms and Rain
3:35 PM 61.0 °F 60.4 °F 98% 29.90 in 4.0 mi South 12.7 mph 23.0 mph 0.07 in Rain , Thunderstorm Heavy Thunderstorms and Rain
3:55 PM 60.4 °F 60.4 °F 100% 29.88 in 4.0 mi SSE 9.2 mph - 0.16 in Rain Heavy Rain
4:15 PM 60.3 °F 60.3 °F 100% 29.90 in 3.0 mi West 8.1 mph - 0.11 in Rain Heavy Rain
4:35 PM 60.3 °F 60.3 °F 100% 29.89 in 7.0 mi South 8.1 mph 16.1 mph 0.19 in Rain Light Rain
4:55 PM 61.7 °F 61.7 °F 100% 29.87 in 10.0 mi South 8.1 mph 17.3 mph 0.19 in   Overcast
5:15 PM 61.9 °F 61.2 °F 97% 29.87 in 10.0 mi South 16.1 mph 26.5 mph N/A   Light Drizzle
5:55 PM 61.7 °F 60.8 °F 97% 29.88 in 10.0 mi SSW 10.4 mph 18.4 mph N/A Rain Light Rain
6:35 PM 60.8 °F 60.8 °F 100% 29.90 in 10.0 mi SW 6.9 mph - 0.02 in Rain Light Rain
6:55 PM 60.8 °F 60.8 °F 100% 29.91 in 7.0 mi South 10.4 mph - 0.05 in Rain Light Rain
7:15 PM 61.3 °F 61.3 °F 100% 29.91 in 10.0 mi South 8.1 mph - N/A   Overcast
7:35 PM 60.8 °F 60.8 °F 100% 29.90 in 10.0 mi South 11.5 mph 17.3 mph N/A   Overcast
7:55 PM 60.8 °F 60.8 °F 100% 29.90 in 10.0 mi South 11.5 mph - N/A Thunderstorm Mostly Cloudy
8:15 PM 61.0 °F 61.0 °F 100% 29.91 in 7.0 mi South 9.2 mph - 0.06 in Rain , Thunderstorm Light Thunderstorms and Rain
8:35 PM 61.7 °F 61.7 °F 100% 29.92 in 10.0 mi SSW 8.1 mph - 0.10 in Rain Heavy Rain
8:55 PM 61.3 °F 61.3 °F 100% 29.94 in 10.0 mi NNW 6.9 mph - 0.19 in Rain , Thunderstorm Light Thunderstorms and Rain
9:15 PM 60.8 °F 58.5 °F 92% 29.95 in 10.0 mi NW 4.6 mph - N/A   Overcast
9:35 PM 59.9 °F 57.7 °F 93% 29.96 in 10.0 mi West 3.5 mph - N/A   Overcast
9:55 PM 59.0 °F 59.0 °F 100% 29.97 in 10.0 mi West 4.6 mph - N/A   Overcast
10:15 PM 59.9 °F 54.5 °F 82% 29.99 in 10.0 mi WNW 8.1 mph - N/A   Overcast
10:35 PM 58.5 °F 52.3 °F 80% 30.01 in 10.0 mi NW 9.2 mph 18.4 mph N/A   Scattered Clouds
10:55 PM 56.8 °F 52.3 °F 85% 30.01 in 10.0 mi NNW 10.4 mph 16.1 mph N/A   Scattered Clouds
11:15 PM 55.9 °F 50.0 °F 80% 30.03 in 10.0 mi NNW 13.8 mph 21.9 mph N/A   Clear
11:35 PM 54.5 °F 49.3 °F 83% 30.05 in 10.0 mi North 6.9 mph - N/A   Clear
11:55 PM 53.1 °F 50.0 °F 89% 30.07 in 10.0 mi NNW 6.9 mph - N/A   Clear